TimeCDT,TemperatureF,Dew PointF,Humidity,Sea Level PressureIn,VisibilityMPH,Wind Direction,Wind SpeedMPH,Gust SpeedMPH,PrecipitationIn,Events,Conditions,WindDirDegrees,DateUTC
12:53 AM,66.9,44.1,44,29.78,10.0,North,8.1,-,N/A,,Clear,10,2012-10-18 05:53:00
1:53 AM,68.0,33.1,27,29.82,10.0,NNE,16.1,26.5,N/A,,Clear,20,2012-10-18 06:53:00
2:53 AM,66.0,30.0,26,29.83,10.0,NNE,9.2,-,N/A,,Clear,30,2012-10-18 07:53:00
3:53 AM,64.0,28.9,27,29.85,10.0,NNE,9.2,-,N/A,,Clear,30,2012-10-18 08:53:00
4:53 AM,61.0,30.0,31,29.87,10.0,North,4.6,-,N/A,,Clear,10,2012-10-18 09:53:00
5:53 AM,59.0,32.0,36,29.89,10.0,North,5.8,-,N/A,,Clear,10,2012-10-18 10:53:00
6:53 AM,57.0,33.1,40,29.91,10.0,Calm,Calm,-,N/A,,Clear,0,2012-10-18 11:53:00
7:53 AM,55.0,37.0,51,29.94,10.0,North,3.5,-,N/A,,Partly Cloudy,350,2012-10-18 12:53:00
8:53 AM,59.0,39.0,48,29.96,10.0,NNW,3.5,-,N/A,,Partly Cloudy,330,2012-10-18 13:53:00
9:53 AM,66.9,36.0,32,29.99,10.0,North,3.5,-,N/A,,Partly Cloudy,350,2012-10-18 14:53:00
10:53 AM,70.0,30.0,23,30.00,10.0,ENE,6.9,-,N/A,,Partly Cloudy,60,2012-10-18 15:53:00
11:53 AM,73.0,26.1,17,30.00,10.0,ENE,9.2,-,N/A,,Partly Cloudy,60,2012-10-18 16:53:00
12:53 PM,73.0,23.0,15,29.99,10.0,North,6.9,-,N/A,,Partly Cloudy,360,2012-10-18 17:53:00
1:53 PM,73.9,23.0,15,29.96,10.0,Variable,5.8,-,N/A,,Partly Cloudy,0,2012-10-18 18:53:00
2:53 PM,75.0,27.0,17,29.94,10.0,North,10.4,17.3,N/A,,Partly Cloudy,10,2012-10-18 19:53:00
3:53 PM,73.9,28.0,18,29.94,10.0,NW,8.1,-,N/A,,Partly Cloudy,310,2012-10-18 20:53:00
4:53 PM,73.9,27.0,18,29.94,10.0,North,5.8,-,N/A,,Clear,360,2012-10-18 21:53:00
5:53 PM,73.0,27.0,18,29.93,10.0,North,6.9,-,N/A,,Clear,360,2012-10-18 22:53:00
6:53 PM,69.1,30.0,23,29.94,10.0,North,3.5,-,N/A,,Clear,360,2012-10-18 23:53:00
7:53 PM,66.0,35.1,32,29.96,10.0,North,4.6,-,N/A,,Clear,360,2012-10-19 00:53:00
8:53 PM,62.1,37.9,41,29.98,10.0,North,3.5,-,N/A,,Clear,350,2012-10-19 01:53:00
9:53 PM,61.0,37.0,41,29.98,10.0,Calm,Calm,-,N/A,,Clear,0,2012-10-19 02:53:00
10:53 PM,57.0,42.1,57,29.98,10.0,Calm,Calm,-,N/A,,Clear,0,2012-10-19 03:53:00
11:53 PM,57.9,41.0,53,29.98,10.0,Calm,Calm,-,N/A,,Clear,0,2012-10-19 04:53:00